STARLINK-11466, 62220

Orbit data source: Space-Track

STARLINK-11466, 62220 is a payload satellite owned by SpaceX/Seattle (US) in LEO that was launched on Thu, 05 Dec 2024 UTC via an FALCON 9 launch vehicle from the Air Force Western Test Range (AFWTR). Payload-class satellites include a variety of spacecraft equipped with specific instruments for various scientific and technological missions. These include communications satellites like Starlink; space stations such as the ISS; scientific satellites like the Hubble; Earth observation satellites from companies like Planet Labs, Umbra, and HawkEye 360; GPS; miniature CubeSats for education and research; and military/defense satellites.

Loading next visibility...
Identifier
62220, 2024-231C
Orbit
LEO
Country
Flag of USUS
Related business
Manufacturer
SpaceX/Seattle
Mission
Operational Commercial Communications
Bus & Motor
STARLINK V2MD, Unknown motor
Mass
960 kg wet, ~910 kg dry
Launch date (UTC)
2024-12-05 (11 months ago)
Launch vehicle
FALCON 9
Launch site
Air Force Western Test Range (AFWTR)
Object type
Payload
Rocket body
Debris
Shape & HBR
Box + 2 Pan, 18.1 m
Radar Cross Section
36.964 m², Large (>1 m²)

Expand to show TLE details & history
Last TLE update: 22 hours ago

TLE from 22 hours ago
0 STARLINK-11466
1 62220U 24231C   25315.29407563  .00201577  00000-0  16214-2 0  9994
2 62220  53.1580 325.0962 0001170 106.1127 254.0020 15.69816269 54814
Epoch: 2025-11-11T07:03Z
TLE epoch observation values (Epoch: 2025-11-11T07:03:28.134Z)
Latitude
-0°
Longitude
168.54627°
Altitude
360.555 km
Speed
7.694 km/s
True Right ascension
21h 40m 23s
True Declination
0° 00' 00"
Sunlit
Object was in daylight at epoch
Visualization orbit readout
Latitude
Unknown
Longitude
Unknown
Altitude
Unknown
Speed
Unknown
Apparent Right ascension
Unknown
Apparent Declination
Unknown
Sunlit
N/A
Visualization observer readout
Local Sidereal Time
01:39:39
Azimuth
Unknown
Elevation
Unknown
Doppler factor
Unknown
Orbital elements
Apogee altitude
360.472 km
Perigee altitude
358.895 km
Semi-major axis
6,737.821 km
Eccentricity
0.00012
Inclination
53.158°
RAAN
325.0962°
Arg. of periapsis
106.1127°
True anomaly
253.98911°
Mean anomaly
254.002°
Eccentric anomaly
253.99556°
Mean motion
3.92432 °/min
Orbital period
91.74 mins
BSTAR
0.0016214
Loading maneuver chart data...
Computing Atmospheric mass density...
Loading historical data...
Loading historical data...
Loading historical data...
Loading historical data...
Loading historical data...
Loading historical data...
Loading historical data...

Documentation

Showing up to 5 results
|